QPF
0.00 0.00 0.00 0.00 0.00 0.00 0.00 0.00 0.00 0.00 0.03 0.05 0.05 0.04 0.03 0.03 0.03 0.03 0.02 0.03 0.02 0.01 0.01 0.01 0.01 0.00 0.00 0.00 0.00 0.00 0.00 0.00 0.00 0.00 0.00 0.00 0.00 0.00 0.00 0.00 0.00 0.00 0.00
0.00 0.00 0.00 0.00 0.00 0.00 0.00 0.00 0.00 0.00 0.01 0.02 0.02 0.05 0.08 0.09 0.09 0.08 0.06 0.05 0.05 0.03 0.02 0.01 0.01 0.01 0.01 0.00 0.00 0.00 0.00 0.00 0.00 0.00 0.00 0.00 0.00 0.00 0.00 0.00 0.00 0.00 0.00
0.00 0.00 0.00 0.00 0.00 0.00 0.00 0.00 0.00 0.00 0.01 0.02 0.05 0.07 0.08 0.08 0.08 0.05 0.04 0.06 0.08 0.07 0.05 0.03 0.02 0.02 0.01 0.01 0.00 0.00 0.00 0.00 0.00 0.00 0.00 0.00 0.00 0.00 0.00 0.00 0.00 0.00 0.00
0.00 0.00 0.00 0.00 0.00 0.00 0.00 0.00 0.00 0.00 0.00 0.01 0.02 0.02 0.02 0.02 0.03 0.05 0.08 0.09 0.09 0.09 0.08 0.07 0.04 0.03 0.02 0.01 0.01 0.00 0.00 0.00 0.00 0.00 0.00 0.00 0.00 0.00 0.00 0.00 0.00 0.00 0.00
0.00 0.00 0.00 0.00 0.00 0.00 0.00 0.00 0.00 0.00 0.00 0.00 0.01 0.02 0.02 0.02 0.03 0.05 0.07 0.07 0.08 0.09 0.09 0.08 0.07 0.05 0.04 0.03 0.02 0.01 0.01 0.00 0.00 0.00 0.00 0.00 0.00 0.00 0.00 0.00 0.00 0.00 0.00
0.00 0.00 0.00 0.00 0.00 0.00 0.00 0.00 0.00 0.00 0.00 0.00 0.00 0.01 0.01 0.01 0.02 0.03 0.04 0.05 0.06 0.07 0.07 0.08 0.08 0.07 0.06 0.05 0.03 0.02 0.01 0.01 0.01 0.00 0.00 0.00 0.00 0.00 0.00 0.00 0.00 0.00 0.00
0.00 0.00 0.00 0.00 0.00 0.00 0.00 0.00 0.00 0.00 0.00 0.00 0.01 0.01 0.01 0.01 0.02 0.03 0.04 0.04 0.04 0.04 0.05 0.06 0.07 0.08 0.08 0.07 0.05 0.03 0.02 0.01 0.01 0.01 0.00 0.00 0.00 0.00 0.00 0.00 0.00 0.00 0.00
0.00 0.00 0.00 0.00 0.00 0.00 0.00 0.00 0.00 0.00 0.00 0.01 0.01 0.01 0.01 0.02 0.02 0.03 0.03 0.03 0.04 0.05 0.06 0.06 0.07 0.07 0.06 0.06 0.05 0.03 0.02 0.02 0.01 0.01 0.00 0.00 0.00 0.00 0.00 0.00 0.00 0.00 0.00
0.00 0.00 0.00 0.00 0.00 0.00 0.00 0.00 0.00 0.00 0.01 0.01 0.01 0.01 0.01 0.02 0.02 0.03 0.03 0.03 0.03 0.04 0.04 0.05 0.06 0.06 0.05 0.05 0.04 0.03 0.02 0.01 0.01 0.01 0.00 0.00 0.00 0.00 0.00 0.00 0.00 0.00 0.00
0.00 0.00 0.00 0.00 0.00 0.00 0.00 0.00 0.00 0.01 0.01 0.02 0.01 0.02 0.02 0.02 0.03 0.02 0.02 0.02 0.02 0.02 0.04 0.05 0.05 0.06 0.05 0.04 0.03 0.02 0.02 0.01 0.01 0.01 0.00 0.00 0.00 0.00 0.00 0.00 0.00 0.00 0.00
0.00 0.00 0.00 0.00 0.00 0.00 0.00 0.00 0.01 0.01 0.01 0.01 0.01 0.02 0.02 0.02 0.02 0.02 0.01 0.01 0.01 0.02 0.03 0.05 0.05 0.05 0.04 0.03 0.02 0.02 0.01 0.01 0.00 0.00 0.00 0.00 0.00 0.00 0.00 0.00 0.00 0.00 0.00
0.00 0.00 0.00 0.00 0.00 0.00 0.00 0.01 0.01 0.02 0.01 0.01 0.01 0.02 0.02 0.02 0.02 0.02 0.02 0.02 0.02 0.02 0.03 0.03 0.03 0.02 0.02 0.02 0.01 0.01 0.01 0.01 0.00 0.00 0.00 0.01 0.01 0.00 0.00 0.00 0.00 0.00 0.00
0.00 0.00 0.00 0.00 0.00 0.01 0.01 0.01 0.02 0.02 0.02 0.02 0.02 0.02 0.02 0.02 0.02 0.02 0.02 0.02 0.02 0.02 0.02 0.02 0.02 0.02 0.02 0.01 0.01 0.01 0.01 0.01 0.01 0.01 0.01 0.01 0.01 0.00 0.00 0.00 0.00 0.00 0.00
0.01 0.01 0.01 0.01 0.01 0.01 0.01 0.01 0.01 0.01 0.02 0.02 0.02 0.02 0.03 0.03 0.03 0.03 0.02 0.02 0.02 0.02 0.01 0.01 0.01 0.01 0.02 0.02 0.02 0.02 0.02 0.02 0.02 0.01 0.01 0.00 0.00 0.00 0.00 0.00 0.00 0.00 0.00
0.02 0.02 0.02 0.03 0.03 0.02 0.02 0.01 0.01 0.01 0.01 0.02 0.02 0.03 0.03 0.03 0.03 0.02 0.02 0.02 0.01 0.01 0.01 0.02 0.02 0.02 0.03 0.03 0.03 0.03 0.03 0.02 0.01 0.01 0.00 0.00 0.00 0.00 0.00 0.00 0.00 0.00 0.00
0.02 0.02 0.02 0.03 0.03 0.02 0.02 0.02 0.02 0.01 0.02 0.02 0.02 0.02 0.02 0.02 0.02 0.02 0.02 0.02 0.02 0.03 0.03 0.04 0.06 0.06 0.06 0.05 0.04 0.03 0.02 0.01 0.00 0.00 0.00 0.00 0.00 0.00 0.00 0.00 0.00 0.00 0.00
0.01 0.01 0.02 0.02 0.02 0.02 0.01 0.01 0.01 0.02 0.02 0.02 0.02 0.02 0.02 0.02 0.02 0.03 0.04 0.04 0.05 0.05 0.06 0.07 0.07 0.06 0.05 0.04 0.02 0.01 0.01 0.00 0.00 0.00 0.00 0.00 0.00 0.00 0.00 0.00 0.00 0.00 0.00
0.00 0.00 0.01 0.01 0.02 0.02 0.01 0.01 0.01 0.01 0.01 0.01 0.02 0.03 0.04 0.05 0.07 0.08 0.09 0.11 0.11 0.10 0.09 0.07 0.06 0.05 0.03 0.02 0.01 0.00 0.00 0.00 0.00 0.00 0.00 0.00 0.00 0.00 0.00 0.00 0.00 0.00 0.00
0.00 0.00 0.00 0.01 0.01 0.01 0.01 0.01 0.02 0.03 0.02 0.03 0.04 0.07 0.10 0.12 0.13 0.14 0.15 0.14 0.13 0.11 0.09 0.06 0.04 0.03 0.02 0.01 0.00 0.00 0.00 0.00 0.00 0.00 0.00 0.00 0.00 0.00 0.00 0.00 0.00 0.00 0.00
0.01 0.01 0.01 0.01 0.02 0.03 0.04 0.04 0.05 0.08 0.10 0.10 0.12 0.15 0.19 0.21 0.20 0.18 0.16 0.13 0.10 0.08 0.05 0.03 0.02 0.01 0.00 0.00 0.00 0.00 0.00 0.00 0.00 0.00 0.00 0.00 0.00 0.00 0.01 0.01 0.01 0.01 0.00
0.03 0.04 0.04 0.05 0.06 0.06 0.08 0.09 0.10 0.15 0.20 0.23 0.24 0.23 0.23 0.22 0.20 0.16 0.12 0.09 0.06 0.04 0.02 0.01 0.00 0.00 0.00 0.00 0.00 0.00 0.00 0.00 0.00 0.00 0.00 0.00 0.00 0.01 0.01 0.01 0.00 0.00 0.00
0.05 0.06 0.06 0.07 0.09 0.11 0.14 0.16 0.18 0.21 0.23 0.23 0.23 0.21 0.18 0.15 0.12 0.10 0.07 0.04 0.03 0.01 0.01 0.00 0.00 0.00 0.00 0.00 0.00 0.00 0.00 0.00 0.00 0.00 0.00 0.00 0.01 0.01 0.01 0.00 0.00 0.00 0.00
0.04 0.06 0.09 0.11 0.12 0.14 0.17 0.20 0.21 0.20 0.20 0.19 0.17 0.14 0.11 0.08 0.06 0.04 0.02 0.01 0.01 0.00 0.00 0.00 0.00 0.00 0.00 0.00 0.00 0.00 0.00 0.00 0.00 0.00 0.00 0.00 0.00 0.00 0.00 0.00 0.00 0.00 0.00
0.03 0.04 0.06 0.07 0.08 0.09 0.11 0.13 0.12 0.11 0.10 0.10 0.09 0.06 0.04 0.02 0.01 0.01 0.00 0.00 0.00 0.00 0.00 0.00 0.00 0.00 0.00 0.00 0.00 0.00 0.00 0.00 0.00 0.00 0.00 0.00 0.00 0.00 0.00 0.00 0.00 0.00 0.00
0.01 0.02 0.02 0.03 0.04 0.04 0.05 0.05 0.04 0.03 0.03 0.02 0.02 0.01 0.01 0.00 0.00 0.00 0.00 0.00 0.00 0.00 0.00 0.00 0.00 0.00 0.00 0.00 0.00 0.00 0.00 0.00 0.00 0.00 0.00 0.00 0.00 0.00 0.00 0.00 0.00 0.00 0.00
0.00 0.00 0.00 0.01 0.01 0.01 0.01 0.01 0.01 0.00 0.00 0.00 0.00 0.00 0.00 0.00 0.00 0.00 0.00 0.00 0.00 0.00 0.00 0.00 0.00 0.00 0.00 0.00 0.00 0.00 0.00 0.00 0.00 0.00 0.00 0.00 0.00 0.00 0.00 0.00 0.00 0.00 0.00
MSLP
1008.94 1008.80 1008.70 1008.60 1008.52 1008.46 1008.43 1008.46 1008.56 1008.76 1009.04 1009.40 1009.82 1010.27 1010.73 1011.18 1011.62 1012.05 1012.48 1012.92 1013.41 1013.94 1014.54 1015.20 1015.90 1016.63 1017.35 1018.04 1018.67 1019.22 1019.67 1020.02 1020.29 1020.48 1020.62 1020.73 1020.82 1020.90 1020.99 1021.08 1021.18 1021.29 1021.39
1008.41 1008.33 1008.27 1008.18 1008.08 1007.97 1007.88 1007.85 1007.92 1008.09 1008.37 1008.76 1009.21 1009.70 1010.20 1010.68 1011.13 1011.56 1011.98 1012.42 1012.91 1013.46 1014.08 1014.77 1015.52 1016.29 1017.05 1017.77 1018.42 1018.99 1019.46 1019.84 1020.15 1020.39 1020.58 1020.75 1020.89 1021.02 1021.15 1021.26 1021.37 1021.46 1021.54
1007.93 1007.90 1007.86 1007.78 1007.65 1007.49 1007.34 1007.25 1007.27 1007.41 1007.70 1008.11 1008.60 1009.14 1009.70 1010.22 1010.71 1011.16 1011.60 1012.04 1012.53 1013.08 1013.70 1014.40 1015.14 1015.92 1016.68 1017.41 1018.06 1018.65 1019.14 1019.56 1019.92 1020.23 1020.50 1020.74 1020.96 1021.16 1021.33 1021.48 1021.60 1021.69 1021.75
1007.53 1007.53 1007.52 1007.43 1007.26 1007.05 1006.83 1006.67 1006.63 1006.75 1007.02 1007.45 1007.99 1008.59 1009.21 1009.80 1010.34 1010.84 1011.31 1011.77 1012.26 1012.81 1013.42 1014.10 1014.82 1015.57 1016.31 1017.02 1017.67 1018.26 1018.78 1019.24 1019.66 1020.04 1020.40 1020.73 1021.03 1021.30 1021.53 1021.72 1021.86 1021.96 1022.01
1007.24 1007.27 1007.25 1007.15 1006.95 1006.67 1006.38 1006.15 1006.05 1006.12 1006.38 1006.81 1007.38 1008.04 1008.72 1009.38 1009.99 1010.55 1011.07 1011.57 1012.08 1012.63 1013.23 1013.88 1014.57 1015.28 1015.99 1016.67 1017.31 1017.90 1018.44 1018.94 1019.42 1019.87 1020.31 1020.72 1021.10 1021.44 1021.73 1021.95 1022.12 1022.22 1022.26
1007.06 1007.10 1007.08 1006.96 1006.71 1006.38 1006.03 1005.73 1005.56 1005.58 1005.81 1006.23 1006.82 1007.51 1008.24 1008.96 1009.65 1010.28 1010.85 1011.40 1011.95 1012.51 1013.11 1013.74 1014.41 1015.09 1015.76 1016.42 1017.04 1017.63 1018.19 1018.73 1019.25 1019.76 1020.25 1020.72 1021.16 1021.55 1021.88 1022.13 1022.32 1022.43 1022.47
1006.98 1007.01 1006.98 1006.84 1006.56 1006.19 1005.78 1005.42 1005.20 1005.17 1005.36 1005.75 1006.33 1007.02 1007.79 1008.56 1009.30 1009.99 1010.63 1011.24 1011.83 1012.43 1013.04 1013.68 1014.34 1015.00 1015.66 1016.30 1016.92 1017.51 1018.08 1018.64 1019.18 1019.72 1020.25 1020.75 1021.21 1021.62 1021.96 1022.23 1022.42 1022.54 1022.59
1006.94 1006.96 1006.92 1006.76 1006.47 1006.08 1005.65 1005.26 1004.99 1004.92 1005.06 1005.42 1005.96 1006.64 1007.40 1008.18 1008.96 1009.69 1010.39 1011.06 1011.71 1012.36 1013.02 1013.68 1014.36 1015.03 1015.69 1016.33 1016.95 1017.54 1018.12 1018.68 1019.23 1019.77 1020.28 1020.77 1021.22 1021.62 1021.95 1022.21 1022.41 1022.53 1022.59
1006.92 1006.92 1006.87 1006.71 1006.42 1006.03 1005.60 1005.21 1004.94 1004.84 1004.95 1005.26 1005.75 1006.39 1007.12 1007.89 1008.66 1009.43 1010.17 1010.89 1011.60 1012.31 1013.02 1013.74 1014.45 1015.16 1015.84 1016.50 1017.12 1017.72 1018.30 1018.85 1019.37 1019.88 1020.36 1020.80 1021.21 1021.56 1021.85 1022.09 1022.27 1022.39 1022.46
1006.87 1006.86 1006.80 1006.64 1006.37 1006.02 1005.63 1005.28 1005.02 1004.93 1005.02 1005.30 1005.74 1006.32 1006.99 1007.72 1008.47 1009.23 1009.99 1010.75 1011.51 1012.28 1013.06 1013.84 1014.61 1015.36 1016.08 1016.76 1017.41 1018.01 1018.57 1019.10 1019.59 1020.04 1020.46 1020.83 1021.16 1021.44 1021.67 1021.86 1022.02 1022.13 1022.21
1006.82 1006.78 1006.71 1006.57 1006.33 1006.03 1005.71 1005.43 1005.24 1005.18 1005.28 1005.54 1005.94 1006.46 1007.07 1007.74 1008.44 1009.17 1009.93 1010.71 1011.51 1012.32 1013.16 1014.00 1014.82 1015.62 1016.39 1017.10 1017.76 1018.36 1018.91 1019.40 1019.84 1020.22 1020.56 1020.84 1021.08 1021.27 1021.43 1021.57 1021.68 1021.78 1021.86
1006.81 1006.74 1006.65 1006.51 1006.31 1006.08 1005.84 1005.66 1005.56 1005.57 1005.71 1005.98 1006.36 1006.84 1007.38 1007.98 1008.63 1009.32 1010.05 1010.82 1011.64 1012.49 1013.36 1014.24 1015.11 1015.95 1016.74 1017.47 1018.13 1018.73 1019.25 1019.70 1020.08 1020.39 1020.65 1020.84 1020.98 1021.09 1021.17 1021.24 1021.30 1021.37 1021.44
1006.91 1006.80 1006.67 1006.53 1006.36 1006.19 1006.05 1005.97 1005.98 1006.09 1006.30 1006.60 1006.98 1007.43 1007.93 1008.47 1009.06 1009.70 1010.40 1011.15 1011.96 1012.81 1013.70 1014.60 1015.48 1016.33 1017.12 1017.85 1018.50 1019.08 1019.56 1019.97 1020.29 1020.54 1020.71 1020.82 1020.87 1020.89 1020.90 1020.90 1020.91 1020.93 1020.97
1007.21 1007.04 1006.87 1006.70 1006.54 1006.42 1006.36 1006.38 1006.50 1006.72 1007.01 1007.37 1007.78 1008.23 1008.70 1009.21 1009.75 1010.35 1011.00 1011.72 1012.51 1013.34 1014.21 1015.09 1015.95 1016.78 1017.55 1018.25 1018.86 1019.39 1019.83 1020.19 1020.45 1020.64 1020.74 1020.78 1020.76 1020.70 1020.63 1020.56 1020.51 1020.48 1020.48
1007.77 1007.54 1007.31 1007.09 1006.92 1006.83 1006.82 1006.93 1007.15 1007.46 1007.85 1008.28 1008.73 1009.20 1009.68 1010.16 1010.68 1011.24 1011.86 1012.54 1013.28 1014.07 1014.89 1015.72 1016.53 1017.30 1018.01 1018.64 1019.20 1019.67 1020.05 1020.35 1020.56 1020.68 1020.73 1020.70 1020.62 1020.50 1020.37 1020.23 1020.12 1020.03 1019.97
1008.60 1008.32 1008.02 1007.75 1007.55 1007.45 1007.48 1007.64 1007.93 1008.33 1008.79 1009.29 1009.79 1010.30 1010.79 1011.28 1011.79 1012.33 1012.92 1013.56 1014.25 1014.98 1015.73 1016.48 1017.21 1017.88 1018.50 1019.04 1019.51 1019.90 1020.21 1020.44 1020.59 1020.67 1020.66 1020.59 1020.46 1020.29 1020.10 1019.90 1019.73 1019.58 1019.46
1009.68 1009.35 1008.99 1008.67 1008.42 1008.30 1008.33 1008.52 1008.86 1009.30 1009.82 1010.37 1010.93 1011.47 1011.99 1012.50 1013.01 1013.54 1014.10 1014.70 1015.34 1016.00 1016.67 1017.32 1017.94 1018.50 1019.00 1019.43 1019.79 1020.09 1020.31 1020.47 1020.56 1020.59 1020.54 1020.43 1020.26 1020.05 1019.81 1019.56 1019.33 1019.12 1018.94
1010.91 1010.56 1010.16 1009.78 1009.49 1009.35 1009.36 1009.56 1009.91 1010.38 1010.93 1011.51 1012.10 1012.67 1013.22 1013.74 1014.26 1014.79 1015.33 1015.89 1016.48 1017.06 1017.64 1018.18 1018.68 1019.11 1019.48 1019.78 1020.03 1020.22 1020.35 1020.44 1020.47 1020.44 1020.36 1020.21 1020.01 1019.77 1019.49 1019.20 1018.92 1018.66 1018.42
1012.16 1011.81 1011.40 1011.00 1010.70 1010.53 1010.53 1010.71 1011.06 1011.53 1012.08 1012.67 1013.27 1013.85 1014.41 1014.94 1015.46 1015.98 1016.51 1017.04 1017.56 1018.07 1018.56 1018.99 1019.36 1019.66 1019.90 1020.08 1020.20 1020.29 1020.33 1020.34 1020.31 1020.23 1020.11 1019.94 1019.72 1019.45 1019.15 1018.83 1018.51 1018.21 1017.92
1013.29 1012.98 1012.59 1012.22 1011.92 1011.76 1011.76 1011.93 1012.26 1012.71 1013.24 1013.82 1014.40 1014.97 1015.52 1016.05 1016.56 1017.07 1017.57 1018.06 1018.53 1018.97 1019.36 1019.69 1019.94 1020.12 1020.24 1020.30 1020.31 1020.29 1020.25 1020.18 1020.10 1019.98 1019.83 1019.63 1019.39 1019.11 1018.79 1018.46 1018.12 1017.78 1017.47
1014.18 1013.93 1013.62 1013.31 1013.07 1012.95 1012.98 1013.16 1013.47 1013.90 1014.39 1014.93 1015.48 1016.01 1016.54 1017.04 1017.54 1018.02 1018.48 1018.93 1019.34 1019.71 1020.01 1020.24 1020.39 1020.47 1020.47 1020.43 1020.35 1020.24 1020.12 1020.00 1019.86 1019.71 1019.53 1019.32 1019.07 1018.78 1018.46 1018.12 1017.77 1017.42 1017.09
1014.78 1014.63 1014.43 1014.23 1014.09 1014.04 1014.12 1014.33 1014.64 1015.05 1015.50 1015.99 1016.49 1016.98 1017.46 1017.93 1018.38 1018.82 1019.24 1019.64 1019.99 1020.28 1020.51 1020.65 1020.72 1020.70 1020.62 1020.49 1020.33 1020.15 1019.97 1019.80 1019.63 1019.45 1019.25 1019.03 1018.78 1018.49 1018.18 1017.84 1017.50 1017.15 1016.80
1015.10 1015.07 1015.01 1014.95 1014.94 1015.00 1015.16 1015.41 1015.74 1016.13 1016.55 1016.99 1017.43 1017.87 1018.29 1018.71 1019.11 1019.50 1019.87 1020.21 1020.50 1020.73 1020.88 1020.95 1020.93 1020.84 1020.69 1020.50 1020.28 1020.05 1019.83 1019.63 1019.43 1019.23 1019.02 1018.80 1018.56 1018.28 1017.98 1017.65 1017.31 1016.97 1016.62
1015.22 1015.32 1015.41 1015.50 1015.64 1015.83 1016.08 1016.39 1016.75 1017.13 1017.52 1017.92 1018.30 1018.68 1019.05 1019.41 1019.76 1020.09 1020.41 1020.69 1020.91 1021.07 1021.16 1021.16 1021.08 1020.93 1020.73 1020.49 1020.23 1019.97 1019.73 1019.50 1019.29 1019.08 1018.88 1018.66 1018.42 1018.16 1017.87 1017.55 1017.22 1016.88 1016.52
1015.26 1015.49 1015.72 1015.97 1016.25 1016.56 1016.90 1017.27 1017.65 1018.03 1018.40 1018.75 1019.09 1019.42 1019.73 1020.04 1020.34 1020.62 1020.88 1021.10 1021.26 1021.36 1021.38 1021.32 1021.19 1021.00 1020.75 1020.48 1020.20 1019.93 1019.68 1019.44 1019.23 1019.02 1018.82 1018.61 1018.37 1018.12 1017.84 1017.53 1017.20 1016.85 1016.48
1015.35 1015.69 1016.04 1016.42 1016.81 1017.22 1017.64 1018.05 1018.44 1018.82 1019.16 1019.49 1019.79 1020.07 1020.35 1020.61 1020.86 1021.10 1021.30 1021.47 1021.57 1021.62 1021.58 1021.47 1021.30 1021.06 1020.79 1020.51 1020.22 1019.94 1019.69 1019.45 1019.24 1019.04 1018.84 1018.62 1018.39 1018.14 1017.85 1017.54 1017.20 1016.83 1016.43
Thickness
5680 5682 5685 5688 5690 5692 5692 5693 5693 5694 5692 5688 5685 5682 5680 5680 5678 5677 5674 5669 5665 5660 5654 5648 5643 5639 5634 5629 5623 5617 5611 5605 5602 5598 5594 5591 5589 5587 5584 5581 5578 5575 5572
5673 5676 5678 5680 5682 5684 5686 5687 5688 5690 5690 5689 5687 5685 5681 5676 5675 5673 5670 5666 5661 5656 5650 5645 5639 5634 5628 5622 5617 5612 5604 5598 5594 5591 5586 5583 5579 5577 5575 5571 5568 5565 5562
5668 5670 5671 5674 5676 5677 5679 5682 5683 5684 5685 5684 5681 5675 5668 5664 5662 5662 5662 5660 5656 5651 5646 5641 5635 5629 5625 5618 5613 5608 5601 5592 5586 5584 5581 5576 5574 5567 5564 5561 5558 5555 5551
5662 5664 5666 5667 5669 5671 5673 5675 5676 5677 5678 5677 5673 5669 5666 5662 5661 5659 5656 5651 5648 5644 5640 5635 5630 5625 5619 5613 5608 5602 5596 5590 5581 5576 5572 5568 5565 5560 5556 5551 5547 5544 5540
5654 5656 5658 5660 5662 5663 5664 5665 5666 5667 5668 5668 5668 5665 5663 5660 5653 5649 5645 5641 5638 5635 5632 5627 5623 5618 5613 5607 5601 5595 5589 5585 5578 5571 5565 5559 5553 5548 5545 5541 5535 5532 5529
5647 5647 5648 5650 5650 5651 5652 5653 5654 5656 5657 5657 5658 5657 5655 5648 5641 5637 5633 5629 5625 5623 5621 5618 5614 5609 5604 5599 5593 5587 5581 5576 5570 5563 5558 5552 5545 5539 5533 5528 5522 5517 5515
5632 5633 5635 5636 5637 5637 5637 5639 5640 5642 5643 5644 5645 5647 5646 5641 5638 5633 5627 5621 5616 5613 5611 5609 5604 5599 5594 5589 5584 5577 5572 5566 5560 5554 5547 5542 5536 5530 5523 5516 5510 5505 5503
5616 5617 5619 5620 5620 5623 5623 5624 5625 5627 5629 5630 5632 5633 5632 5630 5627 5624 5621 5616 5612 5607 5603 5599 5594 5589 5584 5578 5573 5567 5561 5555 5549 5544 5538 5531 5525 5520 5514 5506 5498 5492 5489
5601 5601 5603 5603 5604 5606 5607 5608 5610 5612 5614 5616 5617 5617 5616 5615 5612 5610 5607 5603 5599 5595 5591 5587 5582 5578 5573 5567 5562 5556 5549 5543 5538 5533 5527 5520 5514 5509 5502 5495 5488 5480 5474
5587 5587 5586 5586 5587 5587 5589 5591 5593 5596 5599 5601 5601 5601 5600 5599 5597 5595 5592 5590 5587 5583 5579 5574 5570 5565 5560 5555 5549 5543 5537 5531 5526 5521 5515 5509 5502 5496 5490 5484 5476 5469 5461
5573 5572 5570 5568 5567 5568 5569 5572 5574 5578 5580 5582 5583 5582 5582 5582 5580 5579 5578 5577 5575 5571 5568 5563 5558 5553 5548 5542 5537 5532 5526 5520 5515 5510 5504 5497 5491 5484 5478 5471 5464 5456 5448
5563 5560 5556 5551 5548 5547 5549 5551 5555 5558 5561 5563 5564 5563 5563 5564 5564 5564 5563 5563 5561 5559 5556 5552 5547 5541 5535 5530 5525 5520 5514 5509 5504 5498 5492 5485 5479 5473 5466 5459 5452 5445 5437
5552 5548 5541 5535 5531 5529 5529 5531 5535 5538 5540 5542 5544 5544 5545 5547 5548 5550 5550 5550 5549 5546 5544 5540 5535 5529 5523 5518 5513 5508 5502 5497 5491 5486 5480 5474 5467 5461 5454 5447 5439 5433 5427
5538 5532 5526 5520 5515 5512 5511 5513 5515 5518 5521 5523 5526 5528 5530 5532 5534 5537 5538 5537 5537 5535 5531 5527 5522 5516 5511 5506 5501 5496 5490 5484 5478 5473 5468 5461 5455 5449 5442 5435 5427 5420 5412
5525 5520 5513 5505 5499 5496 5496 5496 5498 5501 5504 5507 5510 5513 5515 5519 5521 5524 5525 5525 5524 5521 5518 5514 5508 5503 5498 5494 5489 5484 5478 5472 5465 5460 5454 5449 5444 5438 5431 5424 5415 5407 5398
5514 5508 5502 5494 5488 5485 5484 5484 5485 5487 5491 5493 5496 5500 5504 5507 5509 5511 5512 5511 5509 5507 5504 5500 5495 5491 5487 5483 5478 5472 5466 5459 5453 5447 5441 5436 5430 5424 5417 5410 5404 5395 5386
5504 5498 5490 5484 5481 5478 5477 5475 5476 5478 5480 5483 5486 5489 5493 5495 5497 5499 5499 5497 5495 5493 5490 5486 5483 5479 5475 5471 5466 5461 5453 5447 5441 5434 5428 5422 5415 5407 5401 5395 5388 5379 5369
5496 5491 5485 5480 5476 5474 5472 5471 5471 5471 5473 5474 5476 5479 5482 5483 5484 5486 5485 5484 5482 5480 5477 5474 5472 5468 5464 5460 5456 5450 5442 5435 5428 5422 5415 5408 5401 5394 5389 5383 5374 5363 5352
5490 5486 5482 5478 5475 5472 5470 5469 5467 5466 5467 5467 5468 5470 5472 5473 5474 5474 5473 5472 5471 5469 5466 5463 5460 5457 5453 5450 5445 5439 5431 5424 5417 5410 5403 5396 5388 5383 5378 5370 5359 5349 5338
5487 5484 5480 5477 5474 5471 5469 5467 5464 5463 5462 5461 5462 5463 5465 5465 5465 5464 5463 5462 5461 5459 5456 5453 5450 5446 5442 5439 5435 5429 5420 5413 5406 5398 5390 5382 5376 5370 5362 5353 5343 5334 5325
5484 5481 5478 5474 5471 5469 5467 5464 5461 5458 5457 5457 5458 5458 5458 5458 5457 5456 5454 5453 5451 5449 5446 5442 5438 5434 5430 5426 5423 5417 5409 5402 5394 5386 5377 5369 5363 5356 5347 5338 5328 5319 5313
5481 5478 5474 5470 5467 5466 5464 5460 5457 5455 5455 5454 5454 5453 5452 5451 5449 5448 5446 5444 5442 5438 5434 5429 5424 5420 5416 5413 5409 5404 5397 5390 5381 5373 5364 5356 5349 5341 5332 5322 5313 5307 5299
5478 5474 5471 5467 5464 5462 5461 5458 5454 5453 5453 5451 5449 5448 5446 5445 5443 5441 5438 5435 5432 5427 5422 5416 5412 5408 5404 5400 5396 5390 5384 5377 5368 5360 5352 5343 5334 5325 5314 5306 5300 5293 5285
5477 5473 5469 5466 5462 5460 5458 5455 5453 5451 5450 5447 5444 5442 5440 5437 5434 5431 5429 5425 5421 5416 5411 5407 5402 5397 5393 5388 5384 5377 5370 5363 5354 5345 5335 5326 5316 5308 5301 5295 5288 5283 5278
5476 5472 5468 5464 5461 5458 5455 5453 5451 5449 5445 5442 5438 5435 5432 5428 5425 5422 5419 5416 5412 5408 5403 5399 5394 5389 5383 5379 5375 5367 5360 5351 5341 5330 5318 5309 5301 5294 5290 5285 5281 5277 5273
5473 5469 5465 5462 5458 5455 5452 5449 5447 5444 5441 5436 5431 5427 5423 5419 5416 5413 5409 5409 5406 5403 5399 5394 5389 5382 5377 5371 5363 5355 5346 5336 5326 5314 5302 5295 5288 5284 5281 5278 5275 5272 5268